Regional Weather Roundup
Issued by NWS Little Rock, AR

Home | Current Version | Previous Version | Text Only | Print | Product List | Glossary Off
Versions: 1 2 3 4 5 6 7 8 9 10 11 12 13 14 15 16 17 18 19 20 21 22 23 24 25 26 27 28 29 30 31 32

000
ASUS44 KLZK 181812
RWRLZK

WEATHER ROUNDUP FOR ARKANSAS
NATIONAL WEATHER SERVICE LITTLE ROCK AR
1200 PM CST WED JAN 18 2017

NOTE: "FAIR" INDICATES FEW OR NO CLOUDS BELOW 12,000 FEET WITH NO
SIGNIFICANT WEATHER AND/OR OBSTRUCTIONS TO VISIBILITY.

ARZ001-003-010-029-181900-
NORTHWEST ARKANSAS

CITY           SKY/WX    TMP DP  RH WIND       PRES   REMARKS
FAYETTEVILLE   CLOUDY    47  41  80 W3        30.13F
6HR MIN TEMP:  32; 6HR MAX TEMP:  47; 6HR PCP: TRACE;

FORT SMITH     CLOUDY    46  41  82 E5        30.15F
6HR MIN TEMP:  42; 6HR MAX TEMP:  46; 6HR PCP:  0.01;

HARRISON       CLOUDY    40  39  97 E9        30.15F
6HR MIN TEMP:  37; 6HR MAX TEMP:  40;

BENTONVILLE    CLOUDY   N/A N/A N/A E7        30.13F
ROGERS         CLOUDY    45  39  79 E8        30.13F
6HR MIN TEMP:  35; 6HR MAX TEMP:  45;

SILOAM SPGS    CLOUDY    46  39  76 S6        30.13F
6HR MIN TEMP:  34; 6HR MAX TEMP:  46;

HIGHFILL       CLOUDY    47  40  76 E5        30.13F
6HR MIN TEMP:  35; 6HR MAX TEMP:  47;

SPRINGDALE     CLOUDY    46  41  81 E6        30.14F
$$

ARZ004-005-016-181900-
NORTH CENTRAL ARKANSAS

CITY           SKY/WX    TMP DP  RH WIND       PRES   REMARKS
BATESVILLE     CLOUDY    45  39  81 E7        30.21F
6HR MIN TEMP:  39; 6HR MAX TEMP:  45;

FLIPPIN        CLOUDY    41  36  81 NE3       30.16F
6HR MIN TEMP:  39; 6HR MAX TEMP:  41;

MTN HOME       CLOUDY    42  37  82 SE5       30.16F
6HR MIN TEMP:  37; 6HR MAX TEMP:  41;

$$

ARZ040-041-181900-
WEST CENTRAL ARKANSAS

CITY           SKY/WX    TMP DP  RH WIND       PRES   REMARKS
MENA           CLOUDY    46  46 100 E3        30.13F
MOUNT IDA      CLOUDY    46  44  93 VRB5      30.12F
6HR MIN TEMP:  45; 6HR MAX TEMP:  47; 6HR PCP:  0.14;

$$

ARZ009-017-025-026-028-181900-
NORTHEAST ARKANSAS

CITY           SKY/WX    TMP DP  RH WIND       PRES   REMARKS
CORNING        CLOUDY    45  41  87 E9        30.21F
JONESBORO      CLOUDY    46  41  82 E7        30.20F
6HR MIN TEMP:  40; 6HR MAX TEMP:  46;

NEWPORT        CLOUDY    47  42  83 E7        30.20
6HR MIN TEMP:  40; 6HR MAX TEMP:  47;

WALNUT RIDGE   CLOUDY    45  37  76 E6        30.21F
6HR MIN TEMP:  41; 6HR MAX TEMP:  45;

BLYTHEVILLE    CLOUDY    47  42  83 CALM      30.22F
6HR MIN TEMP:  43; 6HR MAX TEMP:  47;

NW BLYTHEVILLE CLOUDY    45  41  87 E3        30.22F
$$

ARZ022-023-033-042-044-181900-
CENTRAL ARKANSAS

CITY           SKY/WX    TMP DP  RH WIND       PRES   REMARKS
LITTLE ROCK    CLOUDY    47  43  86 NE10      30.16F
6HR MIN TEMP:  43; 6HR MAX TEMP:  47; 6HR PCP:  0.05;

JACKSONVILLE   PTSUNNY   48  43  81 NE7       30.15F
6HR MIN TEMP:  44; 6HR MAX TEMP:  48; 6HR PCP: TRACE;

SEARCY         CLOUDY    47  43  86 NE9       30.19F
6HR MIN TEMP:  42; 6HR MAX TEMP:  47;

HOT SPRINGS    CLOUDY    47  45  93 E9        30.13F
6HR MIN TEMP:  45; 6HR MAX TEMP:  47; 6HR PCP:  0.01;

RUSSELLVILLE   CLOUDY    46  41  82 E5        30.16F
6HR MIN TEMP:  42; 6HR MAX TEMP:  46; 6HR PCP: TRACE;

CLINTON        CLOUDY    46  41  81 CALM      30.18F
$$

ARZ036-181900-
EAST ARKANSAS

CITY           SKY/WX    TMP DP  RH WIND       PRES   REMARKS
WEST MEMPHIS   CLOUDY    49  44  83 E7        30.16F
6HR MIN TEMP:  44; 6HR MAX TEMP:  49;

$$

ARZ050-053-066-070-073-181900-
SOUTHWEST ARKANSAS

CITY           SKY/WX    TMP DP  RH WIND       PRES   REMARKS
ARKADELPHIA    CLOUDY    49  47  93 NE5       30.14F
6HR MIN TEMP:  46; 6HR MAX TEMP:  49; 6HR PCP:  0.13;

CAMDEN         CLOUDY    50  48  93 N5        30.13R
TEXARKANA      CLOUDY    50  50 100 N9        30.12F
6HR MIN TEMP:  50; 6HR MAX TEMP:  51; 6HR PCP:  0.12;

EL DORADO      LGT RAIN  51  50  96 E12       30.11F FOG
6HR MIN TEMP:  48; 6HR MAX TEMP:  52; 6HR PCP:  1.77;

DE QUEEN       CLOUDY    49  49 100 E7        30.13F FOG
6HR MIN TEMP:  49; 6HR MAX TEMP:  50; 6HR PCP: TRACE;

$$

ARZ056-057-069-181900-
SOUTHEAST ARKANSAS

CITY           SKY/WX    TMP DP  RH WIND       PRES   REMARKS
PINE BLUFF     CLOUDY    50  47  89 NE10      30.15F
6HR MIN TEMP:  47; 6HR MAX TEMP:  50; 6HR PCP:  0.11;

STUTTGART      CLOUDY    48  39  71 NE9       30.17F
6HR MIN TEMP:  45; 6HR MAX TEMP:  48; 6HR PCP:  0.01;

MONTICELLO     LGT RAIN  51  49  92 NE8       30.12F FOG
6HR MIN TEMP:  50; 6HR MAX TEMP:  51; 6HR PCP:  0.26;


$$






USA.gov is the U.S. government's official web portal to all federal, state and local government web resources and services.